Theta_e
354 352 349 349 346 349 347 350 349 349 348 346 345 342 340 336 333 333 328 324 322 322
356 352 350 348 352 349 351 351 350 349 345 344 340 338 334 332 329 329 327 320 320 320
359 356 354 352 351 350 349 349 348 346 342 339 336 333 335 330 327 322 321 320 318 319
358 358 355 352 351 349 350 349 347 343 340 336 333 332 332 327 325 319 318 319 319 318
358 357 354 351 350 351 348 347 345 341 337 335 332 333 327 324 321 318 318 318 318 319
356 356 355 353 351 349 347 345 342 338 335 333 331 328 326 321 319 319 319 320 320 319
355 355 355 353 350 347 345 341 339 336 333 332 329 328 320 318 317 318 319 320 320 317
355 355 354 349 346 345 343 341 337 333 331 331 329 326 317 318 317 317 318 316 314 312
354 353 350 346 344 342 341 337 333 329 328 325 328 328 329 322 319 318 312 310 309 311
354 350 347 344 341 339 336 333 330 328 325 322 320 326 329 331 319 318 315 311 311 314
351 347 344 341 338 336 332 328 328 327 324 319 320 327 327 331 318 317 318 317 317 314
348 344 341 338 335 331 328 327 326 327 321 318 316 323 323 319 318 317 316 316 316 317
346 343 339 337 334 329 327 326 327 325 324 322 315 320 320 318 319 314 315 315 316 324
344 341 339 336 332 328 325 324 323 323 323 319 316 315 318 318 316 317 314 315 316 314
Wind_Speed
8 6 6 8 6 7 7 7 6 6 6 6 6 5 4 3 4 5 4 5 5 3
10 8 8 8 6 5 5 6 7 8 7 6 6 5 5 4 4 5 3 4 5 3
9 8 8 8 7 7 7 7 8 8 7 7 6 4 6 5 5 7 4 3 5 4
10 9 7 9 7 8 7 10 10 9 7 7 6 6 6 6 7 7 5 3 4 3
12 11 9 9 9 11 11 8 8 7 7 7 6 6 7 6 6 7 6 4 5 4
13 13 12 11 11 12 12 10 9 8 8 8 7 7 6 7 7 6 6 6 5 3
16 15 13 12 13 13 12 11 8 7 7 7 7 7 7 7 6 6 5 5 7 6
14 12 12 14 14 13 13 11 10 8 7 7 7 7 8 6 6 6 5 6 6 6
16 12 14 14 13 13 12 12 9 8 7 7 5 15 12 8 6 6 7 6 5 4
16 17 16 14 13 12 12 11 9 9 8 8 6 19 16 14 6 6 6 7 6 4
17 17 15 15 12 13 11 10 10 9 8 7 7 13 14 14 8 6 6 7 7 7
16 17 17 16 15 13 12 9 8 9 9 10 8 13 13 10 7 7 7 6 5 7
15 17 15 14 15 12 11 11 8 8 10 11 9 12 12 9 4 7 5 5 6 10
16 16 13 10 9 9 10 8 6 7 7 9 10 9 13 10 5 4 3 4 5 5
Wind_Direction
177 173 172 168 178 191 181 181 166 132 113 125 128 130 119 83 106 108 85 59 32 353
184 164 169 184 188 175 151 147 146 135 138 134 124 130 121 123 119 88 89 60 45 11
181 167 173 183 173 159 150 137 133 136 136 132 123 122 127 127 101 89 102 88 63 29
182 172 172 170 155 160 132 142 145 141 138 134 135 115 123 125 115 110 110 99 105 78
179 175 171 167 155 144 141 138 133 133 130 133 143 135 133 135 129 134 126 135 100 74
184 180 180 171 154 147 142 141 138 135 143 151 151 152 136 145 148 152 159 156 147 131
187 187 179 155 150 149 149 144 144 142 147 146 146 133 141 140 139 145 151 112 102 98
181 179 155 151 153 149 150 150 140 138 148 148 148 147 144 143 151 155 128 121 117 120
170 159 153 152 152 151 150 140 140 146 146 151 161 149 149 151 151 141 130 125 118 136
164 156 153 148 146 150 147 145 150 149 154 168 169 163 159 157 155 148 154 153 158 177
157 150 143 142 155 150 150 154 157 161 160 150 160 159 149 154 160 157 172 177 186 179
148 144 149 156 162 149 150 151 163 165 147 153 163 160 155 143 157 162 171 184 170 159
147 148 155 166 160 147 147 158 163 167 160 161 168 172 167 162 150 159 171 186 190 165
145 152 151 149 135 132 136 149 165 168 150 161 170 180 175 186 146 150 176 198 196 205